Date String (YYYY-MM-DD hh:mm:ss) UTC,Instrument flags,Ambient pressure (hPa),Sample flow (lpm),Bypass flow (lpm),Sample temperature (°C),Ambient temperature (°C),ASC tube jacket temperature (°C),LED temperature (°C),Box temperature (°C),Sample RH (%),Span deviation,Mass concentration (μg/m³),Mass concentration (μg/m³),Mass concentration (μg/m³)
DateTimeUTC,F1_M11,P_M11,Q1_M11,Q2_M11,T1_M11,T2_M11,T3_M11,T4_M11,T5_M11,U1_M11,ZSPAN_M11,X2_M11,X0_M11,X1_M11
2022-02-05 20:00:00,,0824.7,5.01,0.00,22.2,21.3,00.0,31.2,23.9,07.8,0000.0,0000.50,0000.88,0000.39
2022-02-05 20:01:00,,0824.7,4.99,0.00,22.2,21.3,00.0,31.2,23.9,07.4,0000.0,0000.50,0000.89,0000.39
2022-02-05 20:02:00,,0824.8,5.01,0.00,22.2,21.3,00.0,31.2,23.9,07.4,0000.0,0000.50,0000.90,0000.39
2022-02-05 20:03:00,,0824.7,5.00,0.00,22.2,21.3,00.0,31.2,23.9,07.7,0000.0,0000.50,0000.89,0000.40
2022-02-05 20:04:00,,0824.7,5.00,0.00,22.2,21.3,00.0,31.2,23.9,07.1,0000.0,0000.48,0000.78,0000.40
2022-02-05 20:05:00,,0824.7,5.01,0.00,22.2,21.4,00.0,31.2,23.9,07.7,0000.0,0000.46,0000.72,0000.40
2022-02-05 20:06:00,,0824.8,5.00,0.00,22.3,22.2,00.0,31.3,24.2,07.3,0000.0,0000.47,0000.74,0000.41
2022-02-05 20:07:00,,0824.8,5.00,0.00,22.4,23.1,00.0,31.3,24.5,07.8,0000.0,0000.47,0000.74,0000.41
2022-02-05 20:08:00,,0824.8,5.00,0.00,22.6,23.3,00.0,31.4,24.6,07.3,0000.0,0000.48,0000.74,0000.42
2022-02-05 20:09:00,,0824.9,5.00,0.00,22.6,23.1,00.0,31.4,24.6,07.9,0000.0,0000.47,0000.74,0000.42
2022-02-05 20:10:00,,0824.8,4.99,0.00,22.6,22.9,00.0,31.4,24.6,07.3,0000.0,0000.49,0000.86,0000.41
2022-02-05 20:11:00,,0824.7,5.01,0.00,22.6,22.7,00.0,31.4,24.5,07.1,0000.0,0000.51,0000.97,0000.42
2022-02-05 20:12:00,,0824.6,5.00,0.00,22.6,22.6,00.0,31.5,24.4,07.5,0000.0,0000.52,0001.00,0000.43
2022-02-05 20:13:00,,0824.6,5.00,0.00,22.6,22.4,00.0,31.5,24.3,07.7,0000.0,0000.52,0001.00,0000.43
2022-02-05 20:14:00,,0824.6,4.99,0.00,22.6,22.2,00.0,31.5,24.2,08.2,0000.0,0000.54,0001.04,0000.43
2022-02-05 20:15:00,,0824.6,5.01,0.00,22.6,22.1,00.0,31.5,24.2,08.3,0000.0,0000.54,0000.98,0000.42
2022-02-05 20:16:00,,0824.5,5.00,0.00,22.6,22.1,00.0,31.5,24.3,07.5,0000.0,0000.56,0000.96,0000.42
2022-02-05 20:17:00,,0824.4,5.00,0.00,22.6,22.0,00.0,31.5,24.3,07.4,0000.0,0000.57,0000.98,0000.43
2022-02-05 20:18:00,,0824.5,5.01,0.00,22.6,21.9,00.0,31.5,24.3,07.3,0000.0,0000.57,0000.99,0000.42
2022-02-05 20:19:00,,0824.6,4.99,0.00,22.6,21.9,00.0,31.5,24.3,07.4,0000.0,0000.57,0001.00,0000.42
2022-02-05 20:20:00,,0824.7,5.02,0.00,22.6,21.8,00.0,31.5,24.1,07.5,0000.0,0000.57,0001.00,0000.42
2022-02-05 20:21:00,,0824.6,4.99,0.00,22.5,21.8,00.0,31.5,24.1,07.7,0000.0,0000.56,0000.93,0000.42
2022-02-05 20:22:00,,0824.6,5.00,0.00,22.5,21.7,00.0,31.5,24.1,07.9,0000.0,0000.57,0000.94,0000.41
2022-02-05 20:23:00,,0824.6,5.01,0.00,22.5,21.7,00.0,31.5,24.1,07.7,0000.0,0000.56,0000.97,0000.41
2022-02-05 20:24:00,,0824.6,5.00,0.00,22.5,21.7,00.0,31.5,24.0,07.5,0000.0,0000.59,0001.12,0000.41
2022-02-05 20:25:00,,0824.6,5.01,0.00,22.5,21.7,00.0,31.5,24.0,07.4,0000.0,0000.60,0001.15,0000.42
2022-02-05 20:26:00,,0824.6,4.99,0.00,22.4,21.6,00.0,31.5,24.0,07.6,0000.0,0000.59,0001.12,0000.42
2022-02-05 20:27:00,,0824.6,5.00,0.00,22.4,21.6,00.0,31.5,24.0,07.6,0000.0,0000.57,0001.13,0000.43
2022-02-05 20:28:00,,0824.6,5.00,0.00,22.4,21.5,00.0,31.5,23.9,07.3,0000.0,0000.56,0001.15,0000.42
2022-02-05 20:29:00,,0824.6,4.98,0.00,22.4,21.6,00.0,31.5,24.0,08.1,0000.0,0000.58,0001.18,0000.42
2022-02-05 20:30:00,,0824.7,5.01,0.00,22.4,21.6,00.0,31.5,24.0,07.9,0000.0,0000.60,0001.26,0000.43
2022-02-05 20:31:00,,0824.7,5.01,0.00,22.4,21.5,00.0,31.5,23.9,08.0,0000.0,0000.62,0001.38,0000.43
2022-02-05 20:32:00,,0824.9,5.00,0.00,22.4,21.5,00.0,31.5,24.0,08.0,0000.0,0000.62,0001.33,0000.44
2022-02-05 20:33:00,,0824.9,5.01,0.00,22.4,21.5,00.0,31.5,24.0,07.9,0000.0,0000.62,0001.38,0000.44
2022-02-05 20:34:00,,0824.9,4.98,0.00,22.4,21.5,00.0,31.5,24.0,08.1,0000.0,0000.64,0001.46,0000.44
2022-02-05 20:35:00,,0825.0,5.02,0.00,22.4,21.5,00.0,31.4,24.0,07.4,0000.0,0000.64,0001.44,0000.44
2022-02-05 20:36:00,,0825.1,4.99,0.00,22.4,21.5,00.0,31.4,24.0,07.6,0000.0,0000.61,0001.33,0000.44
2022-02-05 20:37:00,,0825.1,5.01,0.00,22.4,21.5,00.0,31.4,24.0,07.2,0000.0,0000.63,0001.37,0000.44
2022-02-05 20:38:00,,0825.1,4.99,0.00,22.4,21.6,00.0,31.4,24.1,07.2,0000.0,0000.63,0001.38,0000.44
2022-02-05 20:39:00,,0825.1,5.00,0.00,22.4,21.6,00.0,31.4,24.1,07.9,0000.0,0000.62,0001.30,0000.44
2022-02-05 20:40:00,,0825.2,4.99,0.00,22.4,21.6,00.0,31.4,24.1,07.7,0000.0,0000.59,0001.25,0000.43
2022-02-05 20:41:00,,0825.1,5.01,0.00,22.5,21.6,00.0,31.4,24.2,07.6,0000.0,0000.57,0001.18,0000.43
2022-02-05 20:42:00,,0825.1,4.98,0.00,22.5,21.6,00.0,31.4,24.2,07.4,0000.0,0000.59,0001.12,0000.42
2022-02-05 20:43:00,,0825.1,5.01,0.00,22.5,21.7,00.0,31.5,24.3,07.0,0000.0,0000.60,0001.15,0000.42
2022-02-05 20:44:00,,0825.1,4.98,0.00,22.5,21.7,00.0,31.5,24.2,06.9,0000.0,0000.59,0001.05,0000.41
2022-02-05 20:45:00,,0825.1,5.01,0.00,22.6,21.8,00.0,31.5,24.3,07.1,0000.0,0000.57,0000.90,0000.41
2022-02-05 20:46:00,,0825.1,4.98,0.00,22.6,21.8,00.0,31.5,24.3,06.9,0000.0,0000.55,0000.86,0000.40
2022-02-05 20:47:00,,0825.1,5.01,0.00,22.6,21.8,00.0,31.5,24.4,07.1,0000.0,0000.54,0000.84,0000.40
2022-02-05 20:48:00,,0825.0,5.00,0.00,22.6,21.8,00.0,31.5,24.4,08.0,0000.0,0000.53,0000.81,0000.39
2022-02-05 20:49:00,,0825.0,5.01,0.00,22.7,21.9,00.0,31.5,24.4,08.0,0000.0,0000.54,0000.80,0000.40
2022-02-05 20:50:00,,0824.9,4.99,0.00,22.7,21.9,00.0,31.5,24.4,08.0,0000.0,0000.56,0000.83,0000.41
2022-02-05 20:51:00,,0824.9,5.00,0.00,22.7,21.9,00.0,31.5,24.5,08.1,0000.0,0000.59,0000.91,0000.42
2022-02-05 20:52:00,,0824.9,5.00,0.00,22.7,21.9,00.0,31.6,24.5,07.8,0000.0,0000.61,0000.96,0000.42
2022-02-05 20:53:00,,0824.9,4.99,0.00,22.7,21.9,00.0,31.6,24.5,07.8,0000.0,0000.59,0000.95,0000.42
2022-02-05 20:54:00,,0824.9,5.01,0.00,22.8,22.0,00.0,31.6,24.6,07.9,0000.0,0000.59,0000.95,0000.43
2022-02-05 20:55:00,,0824.9,4.99,0.00,22.8,22.0,00.0,31.6,24.6,07.7,0000.0,0000.59,0001.05,0000.42
2022-02-05 20:56:00,,0824.8,5.02,0.00,22.8,22.1,00.0,31.6,24.6,07.9,0000.0,0000.58,0002.12,0000.42
2022-02-05 20:57:00,,0824.9,5.00,0.00,22.9,22.1,00.0,31.7,24.7,07.1,0000.0,0000.57,0002.09,0000.42
2022-02-05 20:58:00,,0824.9,4.99,0.00,22.9,22.2,00.0,31.7,24.7,07.6,0000.0,0000.57,0002.11,0000.42
2022-02-05 20:59:00,,0824.9,5.00,0.00,22.9,22.2,00.0,31.7,24.8,08.0,0000.0,0000.57,0002.11,0000.42
